Location: ActonStarParty
(42.4766°N, 71.4538°W)
Time: 17:42:27
(UTC-05:00)

Cosmos 1300 - Visible Passes

Search period start: 01 February 2015 00:00
Search period end: 11 February 2015 00:00
Orbit: 525 x 527 km, 82.5° (Epoch: 01 February)

Date Brightness Start Highest point End Pass type
(mag) Time Alt. Az. Time Alt. Az. Time Alt. Az.
01 Feb 5.1 04:31:54 10° SE 04:34:58 23° E 04:38:08 10° NE visible
01 Feb 3.8 06:07:42 10° SW 06:10:53 23° WNW 06:14:01 10° NNW visible
01 Feb 6.5 17:41:17 10° WNW 17:41:59 10° W 17:42:26 10° W visible
02 Feb 5.3 04:20:19 10° SE 04:23:15 21° E 04:26:15 10° NE visible
02 Feb 3.7 05:55:47 10° SW 05:59:06 26° WNW 06:02:22 10° NNW visible
03 Feb 5.4 04:08:46 10° SE 04:11:30 19° E 04:14:21 10° NE visible
03 Feb 3.6 05:43:53 10° SW 05:47:17 28° WNW 05:50:41 10° NNW visible
04 Feb 5.5 03:58:56 16° ESE 03:59:45 17° E 04:02:24 10° NE visible
04 Feb 3.4 05:34:22 26° WSW 05:35:29 31° WNW 05:38:59 10° NNW visible
05 Feb 5.8 03:49:23 13° ENE 03:49:23 13° ENE 03:50:25 10° NE visible
05 Feb 3.7 05:24:42 29° NW 05:24:42 29° NW 05:27:15 10° N visible
06 Feb 4.5 05:14:09 19° NNW 05:14:09 19° NNW 05:15:31 10° N visible
07 Feb 5.0 05:03:13 13° N 05:03:13 13° N 05:03:45 10° N visible
